Content
SEND FEEDBACK

Daily
Averages
Monthly
Summary
United States of America

PACIFIC GROVE, CALIFORNIA


Home > North America > United States > California
Elevation: 331 feet     Latitude: 36 36N     Longitude: 121 55W

WEATHER
 
SELECT A DAY
Number of Records: 191,799;   Date Range: 7/1/96 - 7/7/14
 
SHARE

PRINT THIS DATA

[ ← Previous Day ]
WEATHER ALMANAC - NOVEMBER 12, 2013
[ Next Day → ]
[ °C ]   °F
Weather ElementAverageHighLow
Temperature58.7 °F64.9 °F (1:54 pm)52 °F (9:54 pm)
Dewpoint47.8 °F51.1 °F (10:54 am)43 °F (8:54 am)
Humidity67.8 %83 % (10:54 pm)46 % (8:54 am)
Barometer30.27 in30.31 in (10:54 am)30.23 in (1:54 am)
Wind Speed4 mph10.4 mph (6:54 am)
Weather ElementAverage
Visibility9.9 mi
Wind DirectionSE (137 °)

Weather ElementTotal
Precipitation---
Heating Degree Days6.6 (Base 65)
Growing Degree Days8.5 (Base 50)
Averaged from 23 records on November 12, 2013
WEATHER CONDITIONS BREAKOUT
WIND DIRECTION BREAKOUT
WEATHER BY HOUR - NOVEMBER 12, 2013
[ °C ]   °F
Local TimeTemperatureDewpointHumidityBarometerVisibilityWind DirectionWind SpeedGust SpeedPrecipitationEventsConditions
1:54 AM55.9 °F45.0 °F67 %30.23 in10.0 miSW (230°)3.5 mphClear
2:54 AM55.0 °F45.0 °F69 %30.23 in10.0 miCalmClear
3:54 AM55.9 °F46.9 °F72 %30.26 in10.0 miCalmClear
4:54 AM55.9 °F46.9 °F72 %30.28 in10.0 miSSW (210°)3.5 mphClear
5:54 AM55.9 °F46.0 °F69 %30.28 in10.0 miEast (90°)8.1 mphClear
6:54 AM57.0 °F46.9 °F69 %30.27 in10.0 miEast (100°)10.4 mphClear
7:54 AM61.0 °F46.0 °F58 %30.25 in10.0 miENE (70°)9.2 mphPartly Cloudy
8:54 AM64.0 °F43.0 °F46 %30.25 in10.0 miENE (60°)5.8 mphScattered Clouds
9:54 AM61.0 °F50.0 °F67 %30.29 in10.0 miWSW (250°)6.9 mphMostly Cloudy
10:54 AM61.0 °F51.1 °F70 %30.31 in8.0 miNorth (350°)4.6 mphClear
11:54 AM64.0 °F48.0 °F56 %30.28 in10.0 miVariable3.5 mphClear
12:54 PM64.0 °F50.0 °F60 %30.25 in10.0 miWNW (300°)4.6 mphClear
1:54 PM64.9 °F50.0 °F58 %30.25 in10.0 miWNW (300°)6.9 mphClear
2:54 PM64.0 °F50.0 °F60 %30.25 in10.0 miWNW (290°)4.6 mphClear
3:54 PM64.9 °F50.0 °F58 %30.24 in10.0 miWest (280°)3.5 mphClear
4:54 PM62.1 °F50.0 °F65 %30.25 in10.0 miWest (280°)5.8 mphClear
5:54 PM60.1 °F51.1 °F72 %30.27 in10.0 miWSW (240°)3.5 mphClear
6:54 PM57.9 °F48.9 °F72 %30.27 in10.0 miCalmClear
7:54 PM55.0 °F48.0 °F77 %30.28 in10.0 miCalmClear
8:54 PM54.0 °F48.0 °F80 %30.29 in10.0 miCalmClear
9:54 PM52.0 °F46.0 °F80 %30.27 in10.0 miEast (100°)8.1 mphClear
10:54 PM52.0 °F46.9 °F83 %30.28 in10.0 miCalmClear
11:54 PM52.0 °F46.0 °F80 %30.28 in10.0 miCalmClear
Hourly data recorded from KMRY, located miles away from Pacific Grove, California







STORIES FROM OUR PARTNERS